Time,TemperatureF,DewpointF,PressureIn,WindDirection,WindDirectionDegrees,WindSpeedMPH,WindSpeedGustMPH,Humidity,HourlyPrecipIn,Conditions,Clouds,dailyrainin,SolarRadiationWatts/m^2,SoftwareType,DateUTC
2013-02-28 00:02:00,71.0,67.0,-100.00,North,353,4.0,8.0,88,0.00,,,0.02,0.000000,,2013-02-28 05:02:00,
2013-02-28 00:11:00,71.0,67.0,-100.00,North,353,4.0,8.0,88,0.00,,,0.02,0.000000,,2013-02-28 05:11:00,
2013-02-28 00:22:00,71.0,67.0,-100.00,North,353,4.0,8.0,88,0.00,,,0.02,0.000000,,2013-02-28 05:22:00,
2013-02-28 00:32:00,71.0,67.0,-100.00,North,353,4.0,8.0,88,0.00,,,0.02,0.000000,,2013-02-28 05:32:00,
2013-02-28 01:02:00,71.0,67.0,-100.00,North,349,4.0,7.0,88,0.00,,,0.02,0.000000,,2013-02-28 06:02:00,
2013-02-28 01:11:00,71.0,67.0,-100.00,North,349,4.0,7.0,88,0.00,,,0.02,0.000000,,2013-02-28 06:11:00,
2013-02-28 01:22:00,71.0,67.0,-100.00,North,349,4.0,7.0,88,0.00,,,0.02,0.000000,,2013-02-28 06:22:00,
2013-02-28 01:32:00,71.0,67.0,-100.00,North,349,4.0,7.0,88,0.00,,,0.02,0.000000,,2013-02-28 06:32:00,
2013-02-28 01:52:00,71.0,66.0,-100.00,North,352,7.0,12.0,83,0.00,,,0.02,0.000000,,2013-02-28 06:52:00,
2013-02-28 02:01:00,71.0,66.0,-100.00,North,352,7.0,12.0,83,0.00,,,0.02,0.000000,,2013-02-28 07:01:00,
2013-02-28 02:11:00,71.0,66.0,-100.00,North,352,7.0,12.0,83,0.00,,,0.02,0.000000,,2013-02-28 07:11:00,
2013-02-28 02:22:00,71.0,66.0,-100.00,North,352,7.0,12.0,83,0.00,,,0.02,0.000000,,2013-02-28 07:22:00,
2013-02-28 02:32:00,71.0,66.0,-100.00,North,352,7.0,12.0,83,0.00,,,0.02,0.000000,,2013-02-28 07:32:00,
2013-02-28 03:01:00,70.0,64.0,-100.00,North,0,5.0,14.0,81,0.00,,,0.02,0.000000,,2013-02-28 08:01:00,
2013-02-28 03:12:00,70.0,64.0,-100.00,North,0,5.0,14.0,81,0.00,,,0.02,0.000000,,2013-02-28 08:12:00,
2013-02-28 03:22:00,70.0,64.0,-100.00,North,0,5.0,14.0,81,0.00,,,0.02,0.000000,,2013-02-28 08:22:00,
2013-02-28 03:32:00,70.0,64.0,-100.00,North,0,5.0,14.0,81,0.00,,,0.02,0.000000,,2013-02-28 08:32:00,
2013-02-28 03:53:00,70.0,64.0,-100.00,NE,37,2.0,8.0,82,0.00,,,0.01,0.000000,,2013-02-28 08:53:00,
2013-02-28 04:04:00,70.0,64.0,-100.00,NE,37,2.0,8.0,82,0.00,,,0.01,0.000000,,2013-02-28 09:04:00,
2013-02-28 04:12:00,70.0,64.0,-100.00,NE,37,2.0,8.0,82,0.00,,,0.01,0.000000,,2013-02-28 09:12:00,
2013-02-28 04:22:00,70.0,64.0,-100.00,NE,37,2.0,8.0,82,0.00,,,0.01,0.000000,,2013-02-28 09:22:00,
2013-02-28 04:32:00,70.0,64.0,-100.00,NE,37,2.0,8.0,82,0.00,,,0.01,0.000000,,2013-02-28 09:32:00,
2013-02-28 05:02:00,70.0,65.0,-100.00,North,352,5.0,9.0,84,0.00,,,0.01,0.000000,,2013-02-28 10:02:00,
2013-02-28 05:12:00,70.0,65.0,-100.00,North,352,5.0,9.0,84,0.00,,,0.01,0.000000,,2013-02-28 10:12:00,
2013-02-28 05:22:00,70.0,65.0,-100.00,North,352,5.0,9.0,84,0.00,,,0.01,0.000000,,2013-02-28 10:22:00,
2013-02-28 05:32:00,70.0,65.0,-100.00,North,352,5.0,9.0,84,0.00,,,0.01,0.000000,,2013-02-28 10:32:00,
2013-02-28 05:52:00,70.0,65.0,-100.00,North,350,6.0,12.0,84,0.00,,,0.01,0.000000,,2013-02-28 10:52:00,
2013-02-28 06:02:00,70.0,65.0,-100.00,North,350,6.0,12.0,84,0.00,,,0.01,0.000000,,2013-02-28 11:02:00,
2013-02-28 06:11:00,70.0,65.0,-100.00,North,350,6.0,12.0,84,0.00,,,0.01,0.000000,,2013-02-28 11:11:00,
2013-02-28 06:22:00,70.0,65.0,-100.00,North,350,6.0,12.0,84,0.00,,,0.01,0.000000,,2013-02-28 11:22:00,
2013-02-28 06:32:00,70.0,65.0,-100.00,North,350,6.0,12.0,84,0.00,,,0.01,0.000000,,2013-02-28 11:32:00,
2013-02-28 06:53:00,70.0,64.0,-100.00,North,1,8.0,15.0,80,0.00,,,0.01,0.000000,,2013-02-28 11:53:00,
2013-02-28 07:02:00,70.0,64.0,-100.00,North,1,8.0,15.0,80,0.00,,,0.01,0.000000,,2013-02-28 12:02:00,
2013-02-28 07:12:00,70.0,64.0,-100.00,North,1,8.0,15.0,80,0.00,,,0.01,0.000000,,2013-02-28 12:12:00,
2013-02-28 07:22:00,70.0,64.0,-100.00,North,1,8.0,15.0,80,0.00,,,0.01,0.000000,,2013-02-28 12:22:00,
2013-02-28 07:32:00,70.0,64.0,-100.00,North,1,8.0,15.0,80,0.00,,,0.01,0.000000,,2013-02-28 12:32:00,
2013-02-28 08:02:00,70.0,62.0,-100.00,North,5,8.0,16.0,76,0.00,,,0.01,14.000000,,2013-02-28 13:02:00,
2013-02-28 08:12:00,70.0,62.0,-100.00,North,5,8.0,16.0,76,0.00,,,0.01,14.000000,,2013-02-28 13:12:00,
2013-02-28 08:22:00,70.0,62.0,-100.00,North,5,8.0,16.0,76,0.00,,,0.01,14.000000,,2013-02-28 13:22:00,
2013-02-28 08:32:00,70.0,62.0,-100.00,North,5,8.0,16.0,76,0.00,,,0.01,14.000000,,2013-02-28 13:32:00,
2013-02-28 09:02:00,72.0,63.0,-100.00,North,11,7.0,15.0,74,0.00,,,0.01,106.000000,,2013-02-28 14:02:00,
2013-02-28 09:12:00,72.0,63.0,-100.00,North,11,7.0,15.0,74,0.00,,,0.01,106.000000,,2013-02-28 14:12:00,
2013-02-28 09:22:00,72.0,63.0,-100.00,North,11,7.0,15.0,74,0.00,,,0.01,106.000000,,2013-02-28 14:22:00,
2013-02-28 09:32:00,72.0,63.0,-100.00,North,11,7.0,15.0,74,0.00,,,0.01,106.000000,,2013-02-28 14:32:00,
2013-02-28 10:02:00,73.0,63.0,-100.00,NNE,26,9.0,17.0,70,0.00,,,0.01,337.000000,,2013-02-28 15:02:00,
2013-02-28 10:11:00,73.0,63.0,-100.00,NNE,26,9.0,17.0,70,0.00,,,0.01,337.000000,,2013-02-28 15:11:00,
2013-02-28 10:22:00,73.0,63.0,-100.00,NNE,26,9.0,17.0,70,0.00,,,0.01,337.000000,,2013-02-28 15:22:00,
2013-02-28 10:32:00,73.0,63.0,-100.00,NNE,26,9.0,17.0,70,0.00,,,0.01,337.000000,,2013-02-28 15:32:00,
2013-02-28 11:02:00,72.0,60.0,-100.00,NNE,17,7.0,16.0,65,0.00,,,0.01,410.000000,,2013-02-28 16:02:00,
2013-02-28 11:12:00,72.0,60.0,-100.00,NNE,17,7.0,16.0,65,0.00,,,0.01,410.000000,,2013-02-28 16:12:00,
2013-02-28 11:22:00,72.0,60.0,-100.00,NNE,17,7.0,16.0,65,0.00,,,0.01,410.000000,,2013-02-28 16:22:00,
2013-02-28 11:32:00,72.0,60.0,-100.00,NNE,17,7.0,16.0,65,0.00,,,0.01,410.000000,,2013-02-28 16:32:00,
2013-02-28 12:02:00,74.0,56.0,-100.00,NNE,20,8.0,16.0,54,0.00,,,0.01,531.000000,,2013-02-28 17:02:00,
2013-02-28 12:12:00,74.0,56.0,-100.00,NNE,20,8.0,16.0,54,0.00,,,0.01,531.000000,,2013-02-28 17:12:00,
2013-02-28 12:22:00,74.0,56.0,-100.00,NNE,20,8.0,16.0,54,0.00,,,0.01,531.000000,,2013-02-28 17:22:00,
2013-02-28 12:32:00,74.0,56.0,-100.00,NNE,20,8.0,16.0,54,0.00,,,0.01,531.000000,,2013-02-28 17:32:00,
2013-02-28 12:53:00,72.0,56.0,-100.00,North,4,8.0,16.0,57,0.00,,,0.01,387.000000,,2013-02-28 17:53:00,
2013-02-28 13:02:00,72.0,56.0,-100.00,North,4,8.0,16.0,57,0.00,,,0.01,387.000000,,2013-02-28 18:02:00,
2013-02-28 13:12:00,72.0,56.0,-100.00,North,4,8.0,16.0,57,0.00,,,0.01,387.000000,,2013-02-28 18:12:00,
2013-02-28 13:22:00,72.0,56.0,-100.00,North,4,8.0,16.0,57,0.00,,,0.01,387.000000,,2013-02-28 18:22:00,
2013-02-28 13:32:00,72.0,56.0,-100.00,North,4,8.0,16.0,57,0.00,,,0.01,387.000000,,2013-02-28 18:32:00,
2013-02-28 14:02:00,73.0,52.0,-100.00,North,4,9.0,15.0,48,0.00,,,0.01,397.000000,,2013-02-28 19:02:00,
2013-02-28 14:12:00,73.0,52.0,-100.00,North,4,9.0,15.0,48,0.00,,,0.01,397.000000,,2013-02-28 19:12:00,
2013-02-28 14:22:00,73.0,52.0,-100.00,North,4,9.0,15.0,48,0.00,,,0.01,397.000000,,2013-02-28 19:22:00,
2013-02-28 14:32:00,73.0,52.0,-100.00,North,4,9.0,15.0,48,0.00,,,0.01,397.000000,,2013-02-28 19:32:00,
2013-02-28 15:01:00,73.0,49.0,-100.00,NNE,16,6.0,16.0,43,0.00,,,0.01,524.000000,,2013-02-28 20:01:00,
2013-02-28 15:12:00,73.0,49.0,-100.00,NNE,16,6.0,16.0,43,0.00,,,0.01,524.000000,,2013-02-28 20:12:00,
2013-02-28 15:22:00,73.0,49.0,-100.00,NNE,16,6.0,16.0,43,0.00,,,0.01,524.000000,,2013-02-28 20:22:00,
2013-02-28 15:32:00,73.0,49.0,-100.00,NNE,16,6.0,16.0,43,0.00,,,0.01,524.000000,,2013-02-28 20:32:00,
2013-02-28 16:02:00,71.0,47.0,-100.00,North,0,5.0,11.0,42,0.00,,,0.01,206.000000,,2013-02-28 21:02:00,
2013-02-28 16:11:00,71.0,47.0,-100.00,North,0,5.0,11.0,42,0.00,,,0.01,206.000000,,2013-02-28 21:11:00,
2013-02-28 16:22:00,71.0,47.0,-100.00,North,0,5.0,11.0,42,0.00,,,0.01,206.000000,,2013-02-28 21:22:00,
2013-02-28 16:32:00,71.0,47.0,-100.00,North,0,5.0,11.0,42,0.00,,,0.01,206.000000,,2013-02-28 21:32:00,
2013-02-28 17:02:00,70.0,46.0,-100.00,North,353,6.0,11.0,42,0.00,,,0.01,113.000000,,2013-02-28 22:02:00,
2013-02-28 17:11:00,70.0,46.0,-100.00,North,353,6.0,11.0,42,0.00,,,0.01,113.000000,,2013-02-28 22:11:00,
2013-02-28 17:22:00,70.0,46.0,-100.00,North,353,6.0,11.0,42,0.00,,,0.01,113.000000,,2013-02-28 22:22:00,
2013-02-28 17:32:00,70.0,46.0,-100.00,North,353,6.0,11.0,42,0.00,,,0.01,113.000000,,2013-02-28 22:32:00,
2013-02-28 18:02:00,67.0,44.0,-100.00,NNW,343,9.0,16.0,44,0.00,,,0.01,28.000000,,2013-02-28 23:02:00,
2013-02-28 18:12:00,67.0,44.0,-100.00,NNW,343,9.0,16.0,44,0.00,,,0.01,28.000000,,2013-02-28 23:12:00,
2013-02-28 18:22:00,67.0,44.0,-100.00,NNW,343,9.0,16.0,44,0.00,,,0.01,28.000000,,2013-02-28 23:22:00,
2013-02-28 18:32:00,67.0,44.0,-100.00,NNW,343,9.0,16.0,44,0.00,,,0.01,28.000000,,2013-02-28 23:32:00,
2013-02-28 19:02:00,64.0,54.0,-100.00,WNW,289,2.0,15.0,70,0.00,,,0.01,4.000000,,2013-03-01 00:02:00,
2013-02-28 19:11:00,64.0,54.0,-100.00,WNW,289,2.0,15.0,70,0.00,,,0.01,4.000000,,2013-03-01 00:11:00,
2013-02-28 19:22:00,64.0,54.0,-100.00,WNW,289,2.0,15.0,70,0.00,,,0.01,4.000000,,2013-03-01 00:22:00,
2013-02-28 19:32:00,64.0,54.0,-100.00,WNW,289,2.0,15.0,70,0.00,,,0.01,4.000000,,2013-03-01 00:32:00,
2013-02-28 19:52:00,66.0,54.0,-100.00,NW,308,2.0,5.0,66,0.00,,,0.01,0.000000,,2013-03-01 00:52:00,
2013-02-28 20:01:00,66.0,54.0,-100.00,NW,308,2.0,5.0,66,0.00,,,0.01,0.000000,,2013-03-01 01:01:00,
2013-02-28 20:11:00,66.0,54.0,-100.00,NW,308,2.0,5.0,66,0.00,,,0.01,0.000000,,2013-03-01 01:11:00,
2013-02-28 20:22:00,66.0,54.0,-100.00,NW,308,2.0,5.0,66,0.00,,,0.01,0.000000,,2013-03-01 01:22:00,
2013-02-28 20:32:00,66.0,54.0,-100.00,NW,308,2.0,5.0,66,0.00,,,0.01,0.000000,,2013-03-01 01:32:00,
2013-02-28 20:52:00,68.0,51.0,-100.00,NNW,345,4.0,8.0,55,0.00,,,0.00,0.000000,,2013-03-01 01:52:00,
2013-02-28 21:01:00,68.0,51.0,-100.00,NNW,345,4.0,8.0,55,0.00,,,0.00,0.000000,,2013-03-01 02:01:00,
2013-02-28 21:11:00,68.0,51.0,-100.00,NNW,345,4.0,8.0,55,0.00,,,0.00,0.000000,,2013-03-01 02:11:00,
2013-02-28 21:22:00,68.0,51.0,-100.00,NNW,345,4.0,8.0,55,0.00,,,0.00,0.000000,,2013-03-01 02:22:00,
2013-02-28 21:32:00,68.0,51.0,-100.00,NNW,345,4.0,8.0,55,0.00,,,0.00,0.000000,,2013-03-01 02:32:00,
2013-02-28 21:52:00,68.0,46.0,-100.00,North,358,5.0,9.0,46,0.00,,,0.00,0.000000,,2013-03-01 02:52:00,
2013-02-28 22:02:00,68.0,46.0,-100.00,North,358,5.0,9.0,46,0.00,,,0.00,0.000000,,2013-03-01 03:02:00,
2013-02-28 22:12:00,68.0,46.0,-100.00,North,358,5.0,9.0,46,0.00,,,0.00,0.000000,,2013-03-01 03:12:00,
2013-02-28 22:22:00,68.0,46.0,-100.00,North,358,5.0,9.0,46,0.00,,,0.00,0.000000,,2013-03-01 03:22:00,
2013-02-28 22:32:00,68.0,46.0,-100.00,North,358,5.0,9.0,46,0.00,,,0.00,0.000000,,2013-03-01 03:32:00,
2013-02-28 23:02:00,68.0,54.0,-100.00,North,358,5.0,9.0,61,0.00,,,0.00,0.000000,,2013-03-01 04:02:00,
2013-02-28 23:12:00,68.0,54.0,-100.00,North,358,5.0,9.0,61,0.00,,,0.00,0.000000,,2013-03-01 04:12:00,
2013-02-28 23:22:00,68.0,54.0,-100.00,North,358,5.0,9.0,61,0.00,,,0.00,0.000000,,2013-03-01 04:22:00,
2013-02-28 23:32:00,68.0,54.0,-100.00,North,358,5.0,9.0,61,0.00,,,0.00,0.000000,,2013-03-01 04:32:00,
2013-02-28 23:52:00,68.0,57.0,-100.00,North,1,4.0,10.0,67,0.00,,,0.00,0.000000,,2013-03-01 04:52:00,